Location: Unspecified
(0.0000°N, 0.0000°E)
Time: 00:43:58
(UTC+00:00)

Traac - Pass Details

Date: 17 December 2025
Orbit: 951 x 1102 km, 32.4° (Epoch: 19 January)

Event Time Altitude Azimuth Distance (km) Brightness Sun altitude
Exits shadow 03:51:37 27° 11° (NNE) 1,921 9.4 -28.3°
Maximum altitude 03:53:10 29° 33° (NNE) 1,841 9.4 -28.0°
Drops below altitude 10° 03:59:12 10° 91° (E) 2,926 11.3 -26.6°
Sets 04:02:23 0° 102° (ESE) 3,897 12.4 -25.9°
